User: anonymous   Login
Location: G�ppingen
(48.7089°N, 9.6563°E)
Time: 14:08:10
(UTC+02:00)
Language:

PRISM - Orbit

View from above orbital plane
View from above orbital plane
View from above satellite
View from above satellite

Ground track
Ground track

The orbit data is extracted from the following two-line orbital elements,

1 33493U 09002B   19291.80564452  .00000848  00000-0  79521-4 0  9997
2 33493  98.1223 217.3942 0016043 135.2441 225.0077 14.96762255583412
Epoch (UTC): 18 October 2019 19:20:07
Eccentricity: 0.0016043
inclination: 98.1223°
perigee height: 566 km
apogee height: 588 km
right ascension of ascending node: 217.3942°
argument of perigee: 135.2441°
revolutions per day: 14.96762255
mean anomaly at epoch: 225.0077°
orbit number at epoch: 58341

The dashed part of the orbit path shows where the satellite is in the earth's shadow,  

DLR